NKS100 KFLL-TNCM

Flight info

Callsign NKS100
Flight time 2h 26m
Altitude 31000
Route SNAPR2 SUMAC Y421 HAGIT Y290 SLUGO
Aircraft A21N/M-SDE2E3FGHIRWXY/LB1

Departure

Time 2026-05-06 20:50
Airport Fort Lauderdale Hollywood International Airport (KFLL)

Arrival

Time 2026-05-06 23:16
Airport Princess Juliana International Airport (TNCM)
Time Latitude Longitude Altitude Speed Heading
2026-05-06 20:00 26.06934 -80.14607 21 ft 0 kts 90°
2026-05-06 20:39 26.06934 -80.14619 23 ft 4 kts 90°
2026-05-06 20:40 26.06934 -80.14649 23 ft 4 kts 90°
2026-05-06 20:40 26.06935 -80.14673 24 ft 4 kts 98°
2026-05-06 20:40 26.06942 -80.14701 24 ft 4 kts 119°
2026-05-06 20:40 26.06958 -80.14725 22 ft 4 kts 136°
2026-05-06 20:41 26.06975 -80.14741 22 ft 4 kts 139°
2026-05-06 20:41 26.06996 -80.14761 24 ft 4 kts 137°
2026-05-06 20:41 26.07011 -80.14777 22 ft 4 kts 136°
2026-05-06 20:41 26.07021 -80.14788 23 ft 0 kts 136°
2026-05-06 20:44 26.07016 -80.14783 22 ft 3 kts 136°
2026-05-06 20:44 26.06995 -80.14765 24 ft 0 kts 144°
2026-05-06 20:45 26.06986 -80.14761 23 ft 3 kts 159°
2026-05-06 20:45 26.06958 -80.14767 21 ft 6 kts 207°
2026-05-06 20:45 26.06928 -80.14803 21 ft 7 kts 233°
2026-05-06 20:45 26.06912 -80.14857 21 ft 5 kts 259°
2026-05-06 20:46 26.06909 -80.14906 21 ft 8 kts 268°
2026-05-06 20:46 26.06908 -80.14977 21 ft 11 kts 275°
2026-05-06 20:46 26.06914 -80.15062 21 ft 8 kts 271°
2026-05-06 20:46 26.06909 -80.15098 21 ft 9 kts 239°
2026-05-06 20:47 26.06876 -80.15136 22 ft 14 kts 198°
2026-05-06 20:47 26.06777 -80.15161 21 ft 17 kts 234°
2026-05-06 20:47 26.06770 -80.15297 21 ft 19 kts 271°
2026-05-06 20:48 26.06770 -80.15453 21 ft 22 kts 270°
2026-05-06 20:48 26.06700 -80.15573 21 ft 16 kts 253°
2026-05-06 20:48 26.06699 -80.15708 21 ft 19 kts 269°
2026-05-06 20:48 26.06696 -80.15784 21 ft 4 kts 260°
2026-05-06 20:49 26.06670 -80.15812 21 ft 7 kts 207°
2026-05-06 20:49 26.06590 -80.15794 24 ft 21 kts 101°
2026-05-06 20:49 26.06588 -80.15508 29 ft 68 kts 89°
2026-05-06 20:49 26.06584 -80.14777 30 ft 129 kts 91°
2026-05-06 20:50 26.06581 -80.13620 294 ft 154 kts 91°
2026-05-06 20:50 26.06594 -80.12438 918 ft 153 kts 89°
2026-05-06 20:50 26.06606 -80.11221 1416 ft 169 kts 89°
2026-05-06 20:50 26.06656 -80.09835 1766 ft 187 kts 87°
2026-05-06 20:51 26.06718 -80.08333 2209 ft 200 kts 87°
2026-05-06 20:51 26.06783 -80.06764 2677 ft 209 kts 88°
2026-05-06 20:51 26.06800 -80.05116 3138 ft 218 kts 90°
2026-05-06 20:51 26.06773 -80.03374 3514 ft 234 kts 91°
2026-05-06 20:52 26.06753 -80.01593 3768 ft 255 kts 91°
2026-05-06 20:52 26.06738 -79.99466 4247 ft 270 kts 91°
2026-05-06 20:52 26.06707 -79.97363 4921 ft 275 kts 91°
2026-05-06 20:52 26.06678 -79.95225 5639 ft 277 kts 91°
2026-05-06 20:53 26.06652 -79.93076 6358 ft 279 kts 90°
2026-05-06 20:53 26.06628 -79.90908 7033 ft 281 kts 90°
2026-05-06 20:53 26.06606 -79.88722 7662 ft 284 kts 90°
2026-05-06 20:53 26.06583 -79.86521 8290 ft 286 kts 89°
2026-05-06 20:54 26.06559 -79.84332 8914 ft 289 kts 89°
2026-05-06 20:54 26.06412 -79.82122 9523 ft 293 kts 96°
2026-05-06 20:54 26.06070 -79.79846 10095 ft 297 kts 98°
2026-05-06 20:54 26.05706 -79.77586 10378 ft 311 kts 98°
2026-05-06 20:55 26.05318 -79.75162 10595 ft 326 kts 97°
2026-05-06 20:55 26.04916 -79.72624 10818 ft 341 kts 97°
2026-05-06 20:55 26.04499 -79.69965 11035 ft 355 kts 97°
2026-05-06 20:55 26.04073 -79.67234 11473 ft 361 kts 97°
2026-05-06 20:56 26.03609 -79.64483 12015 ft 364 kts 100°
2026-05-06 20:56 26.02985 -79.61735 12574 ft 367 kts 101°
2026-05-06 20:56 26.02338 -79.58981 13143 ft 369 kts 101°
2026-05-06 20:56 26.01684 -79.56208 13682 ft 372 kts 101°
2026-05-06 20:57 26.01026 -79.53417 14178 ft 375 kts 101°
2026-05-06 20:57 26.00363 -79.50598 14606 ft 378 kts 101°
2026-05-06 20:57 25.99695 -79.47753 15048 ft 382 kts 101°
2026-05-06 20:57 25.99020 -79.44879 15471 ft 387 kts 101°
2026-05-06 20:58 25.98346 -79.42014 15890 ft 391 kts 101°
2026-05-06 20:58 25.97644 -79.39076 16298 ft 396 kts 102°
2026-05-06 20:58 25.96729 -79.36160 16696 ft 402 kts 107°
2026-05-06 20:58 25.95715 -79.33249 17106 ft 406 kts 108°
2026-05-06 20:59 25.94685 -79.30309 17513 ft 410 kts 108°
2026-05-06 20:59 25.93647 -79.27340 17922 ft 414 kts 108°
2026-05-06 20:59 25.92602 -79.24346 18315 ft 418 kts 108°
2026-05-06 20:59 25.91548 -79.21319 18672 ft 421 kts 108°
2026-05-06 21:00 25.90504 -79.18319 19032 ft 424 kts 108°
2026-05-06 21:00 25.89433 -79.15256 19393 ft 427 kts 108°
2026-05-06 21:00 25.88356 -79.12173 19768 ft 429 kts 108°
2026-05-06 21:00 25.87272 -79.09066 20119 ft 432 kts 108°
2026-05-06 21:01 25.86196 -79.05987 20468 ft 435 kts 108°
2026-05-06 21:01 25.85093 -79.02840 20817 ft 438 kts 108°
2026-05-06 21:01 25.83985 -78.99684 21175 ft 440 kts 108°
2026-05-06 21:01 25.82885 -78.96555 21529 ft 442 kts 108°
2026-05-06 21:02 25.81765 -78.93359 21887 ft 444 kts 108°
2026-05-06 21:02 25.80650 -78.90176 22232 ft 447 kts 108°
2026-05-06 21:02 25.79519 -78.86952 22569 ft 449 kts 108°
2026-05-06 21:02 25.78375 -78.83710 22904 ft 452 kts 108°
2026-05-06 21:03 25.77229 -78.80455 23230 ft 454 kts 108°
2026-05-06 21:03 25.76076 -78.77177 23559 ft 457 kts 108°
2026-05-06 21:03 25.74911 -78.73883 23845 ft 460 kts 109°
2026-05-06 21:03 25.73511 -78.70677 24116 ft 465 kts 118°
2026-05-06 21:04 25.71783 -78.67728 24384 ft 468 kts 122°
2026-05-06 21:04 25.69892 -78.64674 24677 ft 470 kts 122°
2026-05-06 21:04 25.68036 -78.61684 24951 ft 472 kts 122°
2026-05-06 21:04 25.66177 -78.58670 25222 ft 474 kts 122°
2026-05-06 21:05 25.64317 -78.55643 25493 ft 476 kts 122°
2026-05-06 21:05 25.62447 -78.52603 25756 ft 479 kts 122°
2026-05-06 21:05 25.60566 -78.49546 26021 ft 481 kts 122°
2026-05-06 21:05 25.58712 -78.46460 26283 ft 482 kts 119°
2026-05-06 21:06 25.57251 -78.43132 26525 ft 480 kts 107°
2026-05-06 21:06 25.56279 -78.39647 26779 ft 480 kts 102°
2026-05-06 21:06 25.55399 -78.36077 27038 ft 482 kts 102°
2026-05-06 21:06 25.54514 -78.32485 27288 ft 484 kts 102°
2026-05-06 21:07 25.53605 -78.28878 27542 ft 486 kts 102°
2026-05-06 21:07 25.52688 -78.25268 27797 ft 488 kts 102°
2026-05-06 21:07 25.51759 -78.21648 28045 ft 490 kts 103°
2026-05-06 21:07 25.50816 -78.18000 28297 ft 493 kts 103°
2026-05-06 21:08 25.49875 -78.14349 28538 ft 494 kts 103°
2026-05-06 21:08 25.48932 -78.10682 28777 ft 496 kts 103°
2026-05-06 21:08 25.47985 -78.06991 29002 ft 498 kts 103°
2026-05-06 21:08 25.47035 -78.03294 29243 ft 500 kts 103°
2026-05-06 21:09 25.46077 -77.99584 29539 ft 500 kts 103°
2026-05-06 21:09 25.45122 -77.95890 29822 ft 499 kts 103°
2026-05-06 21:09 25.44166 -77.92207 30185 ft 497 kts 102°
2026-05-06 21:09 25.43213 -77.88531 30458 ft 496 kts 102°
2026-05-06 21:10 25.42265 -77.84859 30697 ft 496 kts 102°
2026-05-06 21:10 25.41328 -77.81246 30926 ft 496 kts 102°
2026-05-06 21:10 25.40375 -77.77574 31135 ft 496 kts 102°
2026-05-06 21:10 25.39423 -77.73915 31356 ft 496 kts 102°
2026-05-06 21:11 25.38467 -77.70245 31570 ft 496 kts 102°
2026-05-06 21:11 25.37511 -77.66586 31774 ft 496 kts 103°
2026-05-06 21:11 25.36552 -77.62927 31973 ft 496 kts 103°
2026-05-06 21:11 25.35591 -77.59261 32181 ft 496 kts 103°
2026-05-06 21:12 25.34635 -77.55600 32393 ft 495 kts 102°
2026-05-06 21:12 25.33675 -77.51940 32591 ft 495 kts 102°
2026-05-06 21:12 25.32717 -77.48285 32761 ft 495 kts 102°
2026-05-06 21:12 25.31758 -77.44626 32955 ft 496 kts 102°
2026-05-06 21:13 25.30792 -77.40965 33094 ft 497 kts 102°
2026-05-06 21:13 25.28986 -77.34921 33094 ft 500 kts 112°
2026-05-06 21:14 25.24751 -77.27257 33079 ft 504 kts 121°
2026-05-06 21:14 25.21534 -77.21834 33076 ft 503 kts 120°
2026-05-06 21:15 25.17758 -77.15386 33065 ft 503 kts 120°
2026-05-06 21:15 25.13965 -77.08893 33063 ft 503 kts 120°
2026-05-06 21:16 25.10178 -77.02410 33057 ft 503 kts 120°
2026-05-06 21:16 25.06375 -76.95922 33058 ft 503 kts 120°
2026-05-06 21:17 25.02583 -76.89455 33058 ft 501 kts 120°
2026-05-06 21:17 24.98801 -76.83019 33067 ft 497 kts 120°
2026-05-06 21:18 24.95039 -76.76629 33064 ft 497 kts 120°
2026-05-06 21:18 24.91269 -76.70231 33063 ft 497 kts 120°
2026-05-06 21:19 24.87503 -76.63840 33063 ft 497 kts 120°
2026-05-06 21:19 24.83755 -76.57501 33059 ft 497 kts 120°
2026-05-06 21:20 24.79975 -76.51116 33061 ft 497 kts 120°
2026-05-06 21:20 24.76215 -76.44763 33063 ft 494 kts 120°
2026-05-06 21:21 24.72459 -76.38431 33071 ft 494 kts 120°
2026-05-06 21:21 24.68699 -76.32102 33065 ft 492 kts 120°
2026-05-06 21:22 24.64952 -76.25800 33069 ft 492 kts 119°
2026-05-06 21:22 24.61206 -76.19499 33073 ft 492 kts 120°
2026-05-06 21:23 24.57468 -76.13207 33081 ft 491 kts 118°
2026-05-06 21:23 24.53889 -76.06825 33070 ft 490 kts 117°
2026-05-06 21:24 24.50347 -76.00489 33061 ft 490 kts 118°
2026-05-06 21:24 24.46784 -75.94122 33075 ft 490 kts 118°
2026-05-06 21:25 24.43208 -75.87743 33072 ft 490 kts 118°
2026-05-06 21:25 24.39628 -75.81373 33070 ft 490 kts 118°
2026-05-06 21:26 24.36045 -75.75003 33062 ft 490 kts 118°
2026-05-06 21:26 24.32482 -75.68683 33063 ft 489 kts 118°
2026-05-06 21:27 24.28916 -75.62349 33071 ft 488 kts 118°
2026-05-06 21:27 24.25345 -75.56031 33068 ft 488 kts 118°
2026-05-06 21:28 24.21775 -75.49708 33070 ft 487 kts 118°
2026-05-06 21:28 24.18201 -75.43396 33067 ft 488 kts 118°
2026-05-06 21:29 24.14618 -75.37076 33069 ft 487 kts 118°
2026-05-06 21:29 24.11042 -75.30769 33065 ft 487 kts 118°
2026-05-06 21:30 24.07456 -75.24456 33071 ft 487 kts 118°
2026-05-06 21:30 24.03894 -75.18195 33073 ft 488 kts 118°
2026-05-06 21:31 24.00310 -75.11902 33067 ft 488 kts 118°
2026-05-06 21:31 23.96710 -75.05594 33075 ft 488 kts 118°
2026-05-06 21:32 23.93112 -74.99297 33068 ft 489 kts 118°
2026-05-06 21:32 23.87709 -74.89844 33067 ft 489 kts 118°
2026-05-06 21:33 23.84123 -74.83578 33066 ft 489 kts 118°
2026-05-06 21:33 23.80508 -74.77283 33063 ft 489 kts 118°
2026-05-06 21:34 23.76892 -74.70989 33065 ft 489 kts 118°
2026-05-06 21:34 23.73276 -74.64705 33069 ft 489 kts 118°
2026-05-06 21:35 23.69657 -74.58417 33068 ft 489 kts 118°
2026-05-06 21:35 23.66040 -74.52144 33067 ft 489 kts 118°
2026-05-06 21:36 23.62416 -74.45867 33064 ft 489 kts 118°
2026-05-06 21:36 23.58781 -74.39587 33067 ft 489 kts 118°
2026-05-06 21:37 23.55185 -74.33373 33067 ft 488 kts 118°
2026-05-06 21:37 23.51558 -74.27115 33067 ft 488 kts 118°
2026-05-06 21:38 23.47927 -74.20855 33065 ft 488 kts 118°
2026-05-06 21:38 23.44297 -74.14608 33063 ft 488 kts 118°
2026-05-06 21:39 23.40687 -74.08396 33068 ft 488 kts 118°
2026-05-06 21:39 23.37051 -74.02144 33078 ft 487 kts 118°
2026-05-06 21:40 23.33413 -73.95902 33090 ft 489 kts 118°
2026-05-06 21:40 23.29770 -73.89649 33097 ft 488 kts 118°
2026-05-06 21:41 23.26123 -73.83406 33102 ft 489 kts 118°
2026-05-06 21:41 23.22474 -73.77174 33097 ft 489 kts 118°
2026-05-06 21:42 23.18821 -73.70945 33087 ft 487 kts 118°
2026-05-06 21:42 23.15175 -73.64734 33087 ft 487 kts 118°
2026-05-06 21:43 23.11515 -73.58501 33102 ft 490 kts 118°
2026-05-06 21:43 23.07848 -73.52260 33075 ft 490 kts 118°
2026-05-06 21:44 23.04198 -73.46058 33064 ft 490 kts 118°
2026-05-06 21:44 23.00509 -73.39797 33063 ft 490 kts 118°
2026-05-06 21:45 22.96824 -73.33560 33063 ft 490 kts 118°
2026-05-06 21:45 22.93164 -73.27368 33067 ft 492 kts 118°
2026-05-06 21:46 22.89470 -73.21117 33061 ft 492 kts 118°
2026-05-06 21:46 22.85757 -73.14844 33061 ft 492 kts 118°
2026-05-06 21:47 22.82055 -73.08597 33058 ft 491 kts 118°
2026-05-06 21:47 22.78359 -73.02375 33062 ft 490 kts 118°
2026-05-06 21:48 22.74684 -72.96201 33063 ft 490 kts 118°
2026-05-06 21:48 22.70979 -72.89973 33066 ft 493 kts 118°
2026-05-06 21:49 22.67252 -72.83726 33059 ft 493 kts 118°
2026-05-06 21:49 22.63528 -72.77486 33059 ft 493 kts 118°
2026-05-06 21:50 22.59809 -72.71246 33059 ft 493 kts 118°
2026-05-06 21:50 22.56082 -72.65003 33062 ft 493 kts 118°
2026-05-06 21:51 22.52348 -72.58767 33069 ft 494 kts 118°
2026-05-06 21:51 22.48603 -72.52521 33061 ft 494 kts 118°
2026-05-06 21:52 22.44860 -72.46278 33052 ft 495 kts 118°
2026-05-06 21:52 22.41152 -72.40103 33058 ft 493 kts 118°
2026-05-06 21:53 22.37411 -72.33882 33057 ft 493 kts 118°
2026-05-06 21:53 22.33667 -72.27665 33058 ft 493 kts 118°
2026-05-06 21:54 22.29919 -72.21448 33065 ft 494 kts 118°
2026-05-06 21:54 22.26188 -72.15275 33059 ft 494 kts 118°
2026-05-06 21:55 22.22424 -72.09063 33062 ft 494 kts 118°
2026-05-06 21:55 22.19300 -72.03907 33060 ft 494 kts 118°
2026-05-06 21:56 22.15528 -71.97704 33059 ft 494 kts 118°
2026-05-06 21:56 22.11782 -71.91486 33059 ft 494 kts 117°
2026-05-06 21:57 22.08006 -71.85289 33061 ft 494 kts 118°
2026-05-06 21:57 22.04243 -71.79094 33058 ft 493 kts 117°
2026-05-06 21:58 22.00515 -71.72937 33056 ft 493 kts 118°
2026-05-06 21:58 21.96741 -71.66762 33059 ft 493 kts 118°
2026-05-06 21:59 21.92979 -71.60590 33059 ft 493 kts 118°
2026-05-06 21:59 21.89220 -71.54413 33068 ft 492 kts 118°
2026-05-06 22:00 21.85443 -71.48262 33058 ft 492 kts 118°
2026-05-06 22:00 21.81688 -71.42100 33058 ft 492 kts 118°
2026-05-06 22:01 21.77940 -71.35988 33062 ft 492 kts 118°
2026-05-06 22:01 21.74168 -71.29843 33059 ft 492 kts 118°
2026-05-06 22:02 21.70387 -71.23684 33053 ft 492 kts 118°
2026-05-06 22:02 21.66605 -71.17543 33055 ft 492 kts 118°
2026-05-06 22:03 21.62855 -71.11441 33059 ft 492 kts 118°
2026-05-06 22:03 21.59063 -71.05307 33055 ft 492 kts 118°
2026-05-06 22:04 21.55230 -70.99209 33056 ft 492 kts 119°
2026-05-06 22:04 21.51371 -70.93139 33057 ft 492 kts 119°
2026-05-06 22:05 21.47500 -70.87066 33062 ft 492 kts 119°
2026-05-06 22:05 21.43646 -70.81026 33056 ft 490 kts 119°
2026-05-06 22:06 21.39813 -70.75014 33051 ft 490 kts 119°
2026-05-06 22:06 21.35955 -70.68981 33053 ft 490 kts 119°
2026-05-06 22:07 21.32096 -70.62939 33051 ft 490 kts 119°
2026-05-06 22:07 21.28232 -70.56897 33050 ft 490 kts 119°
2026-05-06 22:08 21.24405 -70.50878 33069 ft 488 kts 120°
2026-05-06 22:08 21.20553 -70.44880 33065 ft 488 kts 120°
2026-05-06 22:09 21.16724 -70.38916 33059 ft 488 kts 120°
2026-05-06 22:09 21.12873 -70.32930 33053 ft 488 kts 120°
2026-05-06 22:10 21.09015 -70.26949 33044 ft 488 kts 120°
2026-05-06 22:10 21.05171 -70.20961 33050 ft 488 kts 120°
2026-05-06 22:11 21.01323 -70.14982 33063 ft 486 kts 121°
2026-05-06 22:11 20.97478 -70.09017 33063 ft 486 kts 120°
2026-05-06 22:12 20.93651 -70.03046 33052 ft 487 kts 121°
2026-05-06 22:12 20.89823 -69.97116 33058 ft 486 kts 121°
2026-05-06 22:13 20.85970 -69.91168 33047 ft 486 kts 121°
2026-05-06 22:13 20.82113 -69.85225 33068 ft 486 kts 121°
2026-05-06 22:14 20.78286 -69.79289 33050 ft 485 kts 121°
2026-05-06 22:14 20.74436 -69.73357 33053 ft 485 kts 121°
2026-05-06 22:15 20.70574 -69.67450 33055 ft 485 kts 121°
2026-05-06 22:15 20.66723 -69.61525 33055 ft 485 kts 121°
2026-05-06 22:16 20.62898 -69.55630 33051 ft 485 kts 121°
2026-05-06 22:16 20.59045 -69.49716 33057 ft 485 kts 122°
2026-05-06 22:17 20.55188 -69.43822 33054 ft 485 kts 121°
2026-05-06 22:17 20.51331 -69.37912 33055 ft 484 kts 122°
2026-05-06 22:18 20.47481 -69.32015 33059 ft 484 kts 121°
2026-05-06 22:18 20.43617 -69.26114 33057 ft 484 kts 122°
2026-05-06 22:19 20.39776 -69.20267 33057 ft 484 kts 122°
2026-05-06 22:19 20.35909 -69.14381 33059 ft 484 kts 122°
2026-05-06 22:20 20.32041 -69.08498 33062 ft 484 kts 122°
2026-05-06 22:20 20.28196 -69.02611 33062 ft 484 kts 122°
2026-05-06 22:21 20.24315 -68.96710 33065 ft 484 kts 122°
2026-05-06 22:21 20.20460 -68.90873 33062 ft 484 kts 122°
2026-05-06 22:22 20.16578 -68.85000 33071 ft 485 kts 123°
2026-05-06 22:22 20.12685 -68.79121 33062 ft 486 kts 123°
2026-05-06 22:23 20.08790 -68.73227 33061 ft 486 kts 122°
2026-05-06 22:23 20.05051 -68.67244 33063 ft 485 kts 121°
2026-05-06 22:24 20.01367 -68.61276 33057 ft 485 kts 121°
2026-05-06 22:24 19.97650 -68.55278 33064 ft 485 kts 121°
2026-05-06 22:25 19.93941 -68.49280 34020 ft 486 kts 121°
2026-05-06 22:25 19.92065 -68.46266 32872 ft 485 kts 121°
2026-05-06 22:25 19.90212 -68.43274 32911 ft 485 kts 121°
2026-05-06 22:26 19.86501 -68.37281 33040 ft 486 kts 121°
2026-05-06 22:26 19.82779 -68.31284 33065 ft 485 kts 121°
2026-05-06 22:27 19.79073 -68.25337 33069 ft 485 kts 121°
2026-05-06 22:27 19.75342 -68.19353 33062 ft 485 kts 121°
2026-05-06 22:28 19.71648 -68.13434 33060 ft 474 kts 121°
2026-05-06 22:28 19.68027 -68.07616 33067 ft 471 kts 121°
2026-05-06 22:29 19.64403 -68.01819 33071 ft 471 kts 122°
2026-05-06 22:29 19.60759 -67.96029 33071 ft 471 kts 122°
2026-05-06 22:30 19.57137 -67.90253 33073 ft 471 kts 122°
2026-05-06 22:30 19.53508 -67.84439 33074 ft 471 kts 121°
2026-05-06 22:31 19.49903 -67.78687 33072 ft 471 kts 122°
2026-05-06 22:31 19.46257 -67.72912 33071 ft 471 kts 122°
2026-05-06 22:32 19.42642 -67.67128 33071 ft 471 kts 122°
2026-05-06 22:32 19.39001 -67.61348 33071 ft 471 kts 122°
2026-05-06 22:33 19.35369 -67.55567 33075 ft 471 kts 122°
2026-05-06 22:33 19.31728 -67.49802 33073 ft 470 kts 122°
2026-05-06 22:34 19.28087 -67.44046 33074 ft 470 kts 122°
2026-05-06 22:34 19.24454 -67.38288 33074 ft 470 kts 122°
2026-05-06 22:35 19.20805 -67.32526 33072 ft 470 kts 123°
2026-05-06 22:35 19.17160 -67.26773 33071 ft 470 kts 122°
2026-05-06 22:36 19.13548 -67.21049 33081 ft 470 kts 123°
2026-05-06 22:36 19.10518 -67.16267 33072 ft 469 kts 123°
2026-05-06 22:37 19.06874 -67.10529 33068 ft 469 kts 123°
2026-05-06 22:37 19.03235 -67.04793 33069 ft 469 kts 123°
2026-05-06 22:38 18.99593 -66.99064 33067 ft 469 kts 123°
2026-05-06 22:38 18.95943 -66.93326 33068 ft 469 kts 123°
2026-05-06 22:39 18.92316 -66.87632 33062 ft 468 kts 124°
2026-05-06 22:39 18.88680 -66.81918 33062 ft 468 kts 124°
2026-05-06 22:40 18.85041 -66.76210 33059 ft 468 kts 124°
2026-05-06 22:40 18.81396 -66.70504 33058 ft 468 kts 124°
2026-05-06 22:41 18.76401 -66.61670 33049 ft 467 kts 108°
2026-05-06 22:41 18.75647 -66.58343 33051 ft 465 kts 95°
2026-05-06 22:42 18.75374 -66.54988 33058 ft 465 kts 92°
2026-05-06 22:42 18.75011 -66.48165 33052 ft 466 kts 92°
2026-05-06 22:43 18.74580 -66.41328 33054 ft 466 kts 92°
2026-05-06 22:43 18.74140 -66.34498 33053 ft 466 kts 92°
2026-05-06 22:44 18.73674 -66.27682 33054 ft 466 kts 92°
2026-05-06 22:44 18.73212 -66.20897 33055 ft 467 kts 93°
2026-05-06 22:45 18.72754 -66.14056 33055 ft 467 kts 93°
2026-05-06 22:45 18.72303 -66.07214 33009 ft 467 kts 93°
2026-05-06 22:46 18.71809 -66.00373 33024 ft 467 kts 93°
2026-05-06 22:46 18.71342 -65.93587 33061 ft 467 kts 93°
2026-05-06 22:47 18.70868 -65.86735 33068 ft 468 kts 94°
2026-05-06 22:47 18.70391 -65.79878 33069 ft 469 kts 94°
2026-05-06 22:48 18.69914 -65.73021 33071 ft 469 kts 94°
2026-05-06 22:48 18.69420 -65.66146 33071 ft 469 kts 94°
2026-05-06 22:49 18.68941 -65.59289 33068 ft 470 kts 94°
2026-05-06 22:49 18.68448 -65.52398 33072 ft 471 kts 94°
2026-05-06 22:50 18.67957 -65.45547 33073 ft 471 kts 94°
2026-05-06 22:50 18.67464 -65.38648 32903 ft 471 kts 94°
2026-05-06 22:50 18.67095 -65.35223 32561 ft 470 kts 99°
2026-05-06 22:51 18.66554 -65.31817 32287 ft 470 kts 100°
2026-05-06 22:51 18.65986 -65.28409 32035 ft 473 kts 100°
2026-05-06 22:51 18.65401 -65.24957 31810 ft 480 kts 100°
2026-05-06 22:51 18.64821 -65.21489 31569 ft 480 kts 100°
2026-05-06 22:52 18.64262 -65.18018 31329 ft 475 kts 99°
2026-05-06 22:52 18.63722 -65.14638 31092 ft 473 kts 99°
2026-05-06 22:52 18.63170 -65.11215 30850 ft 470 kts 99°
2026-05-06 22:52 18.62612 -65.07821 30617 ft 468 kts 99°
2026-05-06 22:53 18.62053 -65.04435 30387 ft 466 kts 99°
2026-05-06 22:53 18.61502 -65.01085 30153 ft 464 kts 99°
2026-05-06 22:53 18.60950 -64.97731 29892 ft 462 kts 99°
2026-05-06 22:53 18.60410 -64.94403 29622 ft 460 kts 99°
2026-05-06 22:54 18.59871 -64.91084 29353 ft 458 kts 99°
2026-05-06 22:54 18.59330 -64.87830 29092 ft 456 kts 99°
2026-05-06 22:54 18.58779 -64.84548 28829 ft 453 kts 99°
2026-05-06 22:54 18.58240 -64.81278 28570 ft 451 kts 99°
2026-05-06 22:55 18.57707 -64.78027 28312 ft 449 kts 99°
2026-05-06 22:55 18.57173 -64.74794 28057 ft 446 kts 99°
2026-05-06 22:55 18.56636 -64.71569 27806 ft 444 kts 99°
2026-05-06 22:55 18.56107 -64.68374 27556 ft 442 kts 99°
2026-05-06 22:56 18.55583 -64.65195 27305 ft 439 kts 99°
2026-05-06 22:56 18.55064 -64.62064 27054 ft 437 kts 99°
2026-05-06 22:56 18.54535 -64.58914 26821 ft 435 kts 99°
2026-05-06 22:56 18.53996 -64.55743 26580 ft 433 kts 99°
2026-05-06 22:57 18.53486 -64.52668 26339 ft 431 kts 99°
2026-05-06 22:57 18.52967 -64.49559 26101 ft 429 kts 99°
2026-05-06 22:57 18.52447 -64.46467 25750 ft 425 kts 99°
2026-05-06 22:57 18.51939 -64.43411 25239 ft 423 kts 99°
2026-05-06 22:58 18.51430 -64.40358 24668 ft 421 kts 99°
2026-05-06 22:58 18.50918 -64.37323 24084 ft 419 kts 99°
2026-05-06 22:58 18.50413 -64.34319 23495 ft 416 kts 99°
2026-05-06 22:58 18.49910 -64.31338 22980 ft 409 kts 99°
2026-05-06 22:59 18.49422 -64.28400 22425 ft 405 kts 98°
2026-05-06 22:59 18.48936 -64.25498 21855 ft 401 kts 99°
2026-05-06 22:59 18.48451 -64.22613 21279 ft 398 kts 99°
2026-05-06 22:59 18.47972 -64.19775 20728 ft 395 kts 99°
2026-05-06 23:00 18.47494 -64.16937 20176 ft 393 kts 98°
2026-05-06 23:00 18.47012 -64.14107 19624 ft 391 kts 99°
2026-05-06 23:00 18.46525 -64.11297 19101 ft 388 kts 98°
2026-05-06 23:00 18.46052 -64.08511 18585 ft 386 kts 98°
2026-05-06 23:01 18.45584 -64.05734 18037 ft 384 kts 98°
2026-05-06 23:01 18.45118 -64.02976 17513 ft 380 kts 98°
2026-05-06 23:01 18.44650 -64.00253 16883 ft 375 kts 99°
2026-05-06 23:01 18.44191 -63.97554 16235 ft 371 kts 98°
2026-05-06 23:02 18.43742 -63.94915 15633 ft 367 kts 98°
2026-05-06 23:02 18.43297 -63.92286 15019 ft 363 kts 98°
2026-05-06 23:02 18.42856 -63.89670 14426 ft 360 kts 99°
2026-05-06 23:02 18.42411 -63.87094 13861 ft 355 kts 99°
2026-05-06 23:03 18.41966 -63.84551 13241 ft 351 kts 99°
2026-05-06 23:03 18.41532 -63.82036 12604 ft 348 kts 99°
2026-05-06 23:03 18.41105 -63.79542 11986 ft 344 kts 99°
2026-05-06 23:03 18.40692 -63.77081 11382 ft 340 kts 99°
2026-05-06 23:04 18.40278 -63.74645 10782 ft 336 kts 99°
2026-05-06 23:04 18.39866 -63.72226 10187 ft 333 kts 99°
2026-05-06 23:04 18.39464 -63.69835 9571 ft 330 kts 99°
2026-05-06 23:04 18.38934 -63.67500 9147 ft 327 kts 110°
2026-05-06 23:05 18.37919 -63.65367 8941 ft 326 kts 125°
2026-05-06 23:05 18.36388 -63.63608 8789 ft 325 kts 136°
2026-05-06 23:05 18.34724 -63.62002 8670 ft 324 kts 137°
2026-05-06 23:05 18.33059 -63.60408 8532 ft 323 kts 137°
2026-05-06 23:06 18.31405 -63.58808 8376 ft 320 kts 136°
2026-05-06 23:06 18.29777 -63.57225 7895 ft 317 kts 137°
2026-05-06 23:06 18.28167 -63.55655 7461 ft 313 kts 136°
2026-05-06 23:06 18.26612 -63.54137 7204 ft 303 kts 136°
2026-05-06 23:07 18.25079 -63.52638 7018 ft 291 kts 136°
2026-05-06 23:07 18.23626 -63.51216 6859 ft 279 kts 136°
2026-05-06 23:07 18.22224 -63.49843 6563 ft 273 kts 136°
2026-05-06 23:07 18.20839 -63.48491 6173 ft 270 kts 136°
2026-05-06 23:08 18.19461 -63.47149 5769 ft 269 kts 136°
2026-05-06 23:08 18.18092 -63.45811 5354 ft 268 kts 137°
2026-05-06 23:08 18.16747 -63.44494 4975 ft 266 kts 137°
2026-05-06 23:08 18.15396 -63.43170 4602 ft 264 kts 137°
2026-05-06 23:09 18.14049 -63.41851 4267 ft 259 kts 136°
2026-05-06 23:09 18.12739 -63.40570 3875 ft 256 kts 136°
2026-05-06 23:09 18.11443 -63.39302 3486 ft 253 kts 135°
2026-05-06 23:09 18.10173 -63.38063 3030 ft 256 kts 136°
2026-05-06 23:10 18.08858 -63.36783 2693 ft 253 kts 135°
2026-05-06 23:10 18.07564 -63.35517 2606 ft 255 kts 135°
2026-05-06 23:10 18.06317 -63.34299 2597 ft 251 kts 135°
2026-05-06 23:10 18.05037 -63.33052 2571 ft 233 kts 134°
2026-05-06 23:11 18.03903 -63.31944 2564 ft 212 kts 134°
2026-05-06 23:11 18.02845 -63.30908 2571 ft 209 kts 134°
2026-05-06 23:11 18.01857 -63.29800 2583 ft 205 kts 118°
2026-05-06 23:11 18.01481 -63.28440 2468 ft 190 kts 89°
2026-05-06 23:12 18.01690 -63.27090 2244 ft 183 kts 80°
2026-05-06 23:12 18.01909 -63.25814 1923 ft 173 kts 82°
2026-05-06 23:12 18.02104 -63.24615 1745 ft 154 kts 83°
2026-05-06 23:12 18.02260 -63.23601 1702 ft 134 kts 83°
2026-05-06 23:13 18.02403 -63.22630 1702 ft 135 kts 81°
2026-05-06 23:13 18.02551 -63.21639 1725 ft 137 kts 82°
2026-05-06 23:13 18.02687 -63.20662 1718 ft 137 kts 83°
2026-05-06 23:13 18.02828 -63.19662 1560 ft 138 kts 83°
2026-05-06 23:14 18.02972 -63.18667 1356 ft 137 kts 81°
2026-05-06 23:14 18.03113 -63.17680 1157 ft 136 kts 82°
2026-05-06 23:14 18.03249 -63.16701 980 ft 136 kts 84°
2026-05-06 23:14 18.03391 -63.15709 781 ft 136 kts 82°
2026-05-06 23:15 18.03545 -63.14726 570 ft 137 kts 82°
2026-05-06 23:15 18.03708 -63.13739 434 ft 136 kts 84°
2026-05-06 23:15 18.03829 -63.12742 247 ft 137 kts 82°
2026-05-06 23:15 18.03973 -63.11759 54 ft 137 kts 83°
2026-05-06 23:16 18.04097 -63.10839 33 ft 110 kts 81°
2026-05-06 23:16 18.04176 -63.10310 32 ft 57 kts 83°
2026-05-06 23:16 18.04238 -63.09969 32 ft 30 kts 67°
2026-05-06 23:16 18.04227 -63.09896 32 ft 11 kts 216°
2026-05-06 23:17 18.04196 -63.09954 32 ft 18 kts 259°
2026-05-06 23:17 18.04199 -63.10147 32 ft 31 kts 261°
2026-05-06 23:17 18.04166 -63.10380 33 ft 35 kts 263°
2026-05-06 23:17 18.04108 -63.10791 33 ft 52 kts 258°
2026-05-06 23:18 18.04098 -63.10961 33 ft 23 kts 302°
2026-05-06 23:18 18.04156 -63.11008 34 ft 6 kts 297°
2026-05-06 23:18 18.04168 -63.11057 34 ft 8 kts 274°
2026-05-06 23:18 18.04167 -63.11120 34 ft 9 kts 266°
2026-05-06 23:19 18.04203 -63.11180 34 ft 11 kts 313°
2026-05-06 23:19 18.04254 -63.11245 34 ft 7 kts 289°
2026-05-06 23:19 18.04259 -63.11261 34 ft 0 kts 287°
2026-05-06 23:20 18.04260 -63.11262 34 ft 1 kts 288°
2026-05-06 23:20 18.04273 -63.11279 34 ft 6 kts 323°
2026-05-06 23:20 18.04326 -63.11294 34 ft 5 kts 352°
2026-05-06 23:20 18.04335 -63.11296 34 ft 0 kts 353°